owner,sensor,date,latitude,longitude,vertical_datum,sea_water_temperature,qcFlag 
SCCF RECON,ioos:station:SCCF:12:1,2012-11-01T00:00:00Z,26.4966,-82.1479,2.5,20.22,2 
SCCF RECON,ioos:station:SCCF:12:1,2012-11-01T01:00:00Z,26.4966,-82.1479,2.5,20.29,2 
SCCF RECON,ioos:station:SCCF:12:1,2012-11-01T02:00:00Z,26.4966,-82.1479,2.5,20.11,2 
SCCF RECON,ioos:station:SCCF:12:1,2012-11-01T03:00:00Z,26.4966,-82.1479,2.5,20.06,2 
SCCF RECON,ioos:station:SCCF:12:1,2012-11-01T04:00:00Z,26.4966,-82.1479,2.5,20.17,2 
SCCF RECON,ioos:station:SCCF:12:1,2012-11-01T05:00:00Z,26.4966,-82.1479,2.5,20.3,2 
SCCF RECON,ioos:station:SCCF:12:1,2012-11-01T06:00:00Z,26.4966,-82.1479,2.5,20.22,2 
SCCF RECON,ioos:station:SCCF:12:1,2012-11-01T07:00:00Z,26.4966,-82.1479,2.5,20.26,2 
SCCF RECON,ioos:station:SCCF:12:1,2012-11-01T08:00:00Z,26.4966,-82.1479,2.5,20.05,2 
SCCF RECON,ioos:station:SCCF:12:1,2012-11-01T09:00:00Z,26.4966,-82.1479,2.5,19.97,2 
SCCF RECON,ioos:station:SCCF:12:1,2012-11-01T10:00:00Z,26.4966,-82.1479,2.5,20.02,2 
SCCF RECON,ioos:station:SCCF:12:1,2012-11-01T11:00:00Z,26.4966,-82.1479,2.5,20.02,2 
SCCF RECON,ioos:station:SCCF:12:1,2012-11-01T12:00:00Z,26.4966,-82.1479,2.5,19.98,2 
SCCF RECON,ioos:station:SCCF:12:1,2012-11-01T13:00:00Z,26.4966,-82.1479,2.5,20.03,2 
SCCF RECON,ioos:station:SCCF:12:1,2012-11-01T14:00:00Z,26.4966,-82.1479,2.5,20.27,2 
SCCF RECON,ioos:station:SCCF:12:1,2012-11-01T15:00:00Z,26.4966,-82.1479,2.5,20.24,2 
SCCF RECON,ioos:station:SCCF:12:1,2012-11-01T16:00:00Z,26.4966,-82.1479,2.5,20.38,2 
SCCF RECON,ioos:station:SCCF:12:1,2012-11-01T17:00:00Z,26.4966,-82.1479,2.5,20.51,2 
SCCF RECON,ioos:station:SCCF:12:1,2012-11-01T18:00:00Z,26.4966,-82.1479,2.5,20.59,2 
SCCF RECON,ioos:station:SCCF:12:1,2012-11-01T19:00:00Z,26.4966,-82.1479,2.5,20.6,2 
SCCF RECON,ioos:station:SCCF:12:1,2012-11-01T20:00:00Z,26.4966,-82.1479,2.5,20.65,2 
SCCF RECON,ioos:station:SCCF:12:1,2012-11-01T21:00:00Z,26.4966,-82.1479,2.5,20.5,2 
SCCF RECON,ioos:station:SCCF:12:1,2012-11-01T22:00:00Z,26.4966,-82.1479,2.5,20.47,2 
SCCF RECON,ioos:station:SCCF:12:1,2012-11-01T23:00:00Z,26.4966,-82.1479,2.5,20.49,2 
SCCF RECON,ioos:station:SCCF:12:1,2012-11-02T00:00:00Z,26.4966,-82.1479,2.5,20.54,2 
SCCF RECON,ioos:station:SCCF:12:1,2012-11-02T01:00:00Z,26.4966,-82.1479,2.5,20.6,2 
SCCF RECON,ioos:station:SCCF:12:1,2012-11-02T02:00:00Z,26.4966,-82.1479,2.5,20.68,2 
SCCF RECON,ioos:station:SCCF:12:1,2012-11-02T03:00:00Z,26.4966,-82.1479,2.5,20.76,2 
SCCF RECON,ioos:station:SCCF:12:1,2012-11-02T04:00:00Z,26.4966,-82.1479,2.5,20.75,2 
SCCF RECON,ioos:station:SCCF:12:1,2012-11-02T05:00:00Z,26.4966,-82.1479,2.5,20.77,2 
SCCF RECON,ioos:station:SCCF:12:1,2012-11-02T06:00:00Z,26.4966,-82.1479,2.5,20.79,2 
SCCF RECON,ioos:station:SCCF:12:1,2012-11-02T07:00:00Z,26.4966,-82.1479,2.5,20.81,2 
SCCF RECON,ioos:station:SCCF:12:1,2012-11-02T08:00:00Z,26.4966,-82.1479,2.5,20.77,2 
SCCF RECON,ioos:station:SCCF:12:1,2012-11-02T09:00:00Z,26.4966,-82.1479,2.5,20.71,2 
SCCF RECON,ioos:station:SCCF:12:1,2012-11-02T10:00:00Z,26.4966,-82.1479,2.5,20.71,2 
SCCF RECON,ioos:station:SCCF:12:1,2012-11-02T11:00:00Z,26.4966,-82.1479,2.5,20.68,2 
SCCF RECON,ioos:station:SCCF:12:1,2012-11-02T12:00:00Z,26.4966,-82.1479,2.5,20.67,2 
SCCF RECON,ioos:station:SCCF:12:1,2012-11-02T13:00:00Z,26.4966,-82.1479,2.5,20.63,2 
SCCF RECON,ioos:station:SCCF:12:1,2012-11-02T14:00:00Z,26.4966,-82.1479,2.5,20.64,2 
SCCF RECON,ioos:station:SCCF:12:1,2012-11-02T15:00:00Z,26.4966,-82.1479,2.5,20.73,2 
SCCF RECON,ioos:station:SCCF:12:1,2012-11-02T16:00:00Z,26.4966,-82.1479,2.5,20.86,2 
SCCF RECON,ioos:station:SCCF:12:1,2012-11-02T17:00:00Z,26.4966,-82.1479,2.5,20.99,2 
SCCF RECON,ioos:station:SCCF:12:1,2012-11-02T18:00:00Z,26.4966,-82.1479,2.5,21.08,2 
SCCF RECON,ioos:station:SCCF:12:1,2012-11-02T19:00:00Z,26.4966,-82.1479,2.5,21.07,2 
SCCF RECON,ioos:station:SCCF:12:1,2012-11-02T20:00:00Z,26.4966,-82.1479,2.5,21.05,2 
SCCF RECON,ioos:station:SCCF:12:1,2012-11-02T21:00:00Z,26.4966,-82.1479,2.5,21.31,2 
SCCF RECON,ioos:station:SCCF:12:1,2012-11-02T22:00:00Z,26.4966,-82.1479,2.5,21.22,2 
SCCF RECON,ioos:station:SCCF:12:1,2012-11-02T23:00:00Z,26.4966,-82.1479,2.5,21.18,2 
SCCF RECON,ioos:station:SCCF:12:1,2012-11-03T00:00:00Z,26.4966,-82.1479,2.5,21.12,2 
SCCF RECON,ioos:station:SCCF:12:1,2012-11-03T01:00:00Z,26.4966,-82.1479,2.5,21.14,2 
SCCF RECON,ioos:station:SCCF:12:1,2012-11-03T02:00:00Z,26.4966,-82.1479,2.5,21.44,2 
SCCF RECON,ioos:station:SCCF:12:1,2012-11-03T03:00:00Z,26.4966,-82.1479,2.5,21.3,2 
SCCF RECON,ioos:station:SCCF:12:1,2012-11-03T04:00:00Z,26.4966,-82.1479,2.5,21.26,2 
SCCF RECON,ioos:station:SCCF:12:1,2012-11-03T05:00:00Z,26.4966,-82.1479,2.5,21.18,2 
SCCF RECON,ioos:station:SCCF:12:1,2012-11-03T06:00:00Z,26.4966,-82.1479,2.5,21.09,2 
SCCF RECON,ioos:station:SCCF:12:1,2012-11-03T07:00:00Z,26.4966,-82.1479,2.5,21.21,2 
SCCF RECON,ioos:station:SCCF:12:1,2012-11-03T08:00:00Z,26.4966,-82.1479,2.5,21.35,2 
SCCF RECON,ioos:station:SCCF:12:1,2012-11-03T09:00:00Z,26.4966,-82.1479,2.5,21.23,2 
SCCF RECON,ioos:station:SCCF:12:1,2012-11-03T10:00:00Z,26.4966,-82.1479,2.5,21.09,2 
SCCF RECON,ioos:station:SCCF:12:1,2012-11-03T11:00:00Z,26.4966,-82.1479,2.5,20.97,2 
SCCF RECON,ioos:station:SCCF:12:1,2012-11-03T12:00:00Z,26.4966,-82.1479,2.5,20.95,2 
SCCF RECON,ioos:station:SCCF:12:1,2012-11-03T13:00:00Z,26.4966,-82.1479,2.5,20.97,2 
SCCF RECON,ioos:station:SCCF:12:1,2012-11-03T14:00:00Z,26.4966,-82.1479,2.5,21.15,2 
SCCF RECON,ioos:station:SCCF:12:1,2012-11-03T15:00:00Z,26.4966,-82.1479,2.5,21.3,2 
SCCF RECON,ioos:station:SCCF:12:1,2012-11-03T16:00:00Z,26.4966,-82.1479,2.5,21.54,2 
SCCF RECON,ioos:station:SCCF:12:1,2012-11-03T17:00:00Z,26.4966,-82.1479,2.5,21.69,2 
SCCF RECON,ioos:station:SCCF:12:1,2012-11-03T18:00:00Z,26.4966,-82.1479,2.5,21.77,2 
SCCF RECON,ioos:station:SCCF:12:1,2012-11-03T19:00:00Z,26.4966,-82.1479,2.5,21.93,2 
SCCF RECON,ioos:station:SCCF:12:1,2012-11-03T20:00:00Z,26.4966,-82.1479,2.5,21.81,2 
SCCF RECON,ioos:station:SCCF:12:1,2012-11-03T21:00:00Z,26.4966,-82.1479,2.5,21.9,2 
SCCF RECON,ioos:station:SCCF:12:1,2012-11-03T22:00:00Z,26.4966,-82.1479,2.5,22.38,2 
SCCF RECON,ioos:station:SCCF:12:1,2012-11-03T23:00:00Z,26.4966,-82.1479,2.5,22.15,2 
SCCF RECON,ioos:station:SCCF:12:1,2012-11-04T00:00:00Z,26.4966,-82.1479,2.5,22.05,2 
SCCF RECON,ioos:station:SCCF:12:1,2012-11-04T01:00:00Z,26.4966,-82.1479,2.5,22.02,2 
SCCF RECON,ioos:station:SCCF:12:1,2012-11-04T02:00:00Z,26.4966,-82.1479,2.5,22.02,2 
SCCF RECON,ioos:station:SCCF:12:1,2012-11-04T03:00:00Z,26.4966,-82.1479,2.5,22.0,2 
SCCF RECON,ioos:station:SCCF:12:1,2012-11-04T04:00:00Z,26.4966,-82.1479,2.5,22.12,2 
SCCF RECON,ioos:station:SCCF:12:1,2012-11-04T05:00:00Z,26.4966,-82.1479,2.5,22.24,2 
SCCF RECON,ioos:station:SCCF:12:1,2012-11-04T06:00:00Z,26.4966,-82.1479,2.5,22.08,2 
SCCF RECON,ioos:station:SCCF:12:1,2012-11-04T07:00:00Z,26.4966,-82.1479,2.5,21.98,2 
SCCF RECON,ioos:station:SCCF:12:1,2012-11-04T08:00:00Z,26.4966,-82.1479,2.5,22.0,2 
SCCF RECON,ioos:station:SCCF:12:1,2012-11-04T09:00:00Z,26.4966,-82.1479,2.5,21.99,2 
SCCF RECON,ioos:station:SCCF:12:1,2012-11-04T10:00:00Z,26.4966,-82.1479,2.5,22.0,2 
SCCF RECON,ioos:station:SCCF:12:1,2012-11-04T11:00:00Z,26.4966,-82.1479,2.5,21.86,2 
SCCF RECON,ioos:station:SCCF:12:1,2012-11-04T12:00:00Z,26.4966,-82.1479,2.5,21.87,2 
SCCF RECON,ioos:station:SCCF:12:1,2012-11-04T13:00:00Z,26.4966,-82.1479,2.5,21.89,2 
SCCF RECON,ioos:station:SCCF:12:1,2012-11-04T14:00:00Z,26.4966,-82.1479,2.5,21.88,2 
SCCF RECON,ioos:station:SCCF:12:1,2012-11-04T15:00:00Z,26.4966,-82.1479,2.5,21.91,2 
SCCF RECON,ioos:station:SCCF:12:1,2012-11-04T16:00:00Z,26.4966,-82.1479,2.5,21.98,2 
SCCF RECON,ioos:station:SCCF:12:1,2012-11-04T17:00:00Z,26.4966,-82.1479,2.5,22.09,2 
SCCF RECON,ioos:station:SCCF:12:1,2012-11-04T18:00:00Z,26.4966,-82.1479,2.5,22.22,2 
SCCF RECON,ioos:station:SCCF:12:1,2012-11-04T19:00:00Z,26.4966,-82.1479,2.5,22.28,2 
SCCF RECON,ioos:station:SCCF:12:1,2012-11-04T20:00:00Z,26.4966,-82.1479,2.5,22.42,2 
SCCF RECON,ioos:station:SCCF:12:1,2012-11-04T21:00:00Z,26.4966,-82.1479,2.5,22.32,2 
SCCF RECON,ioos:station:SCCF:12:1,2012-11-04T22:00:00Z,26.4966,-82.1479,2.5,22.81,2 
SCCF RECON,ioos:station:SCCF:12:1,2012-11-04T23:00:00Z,26.4966,-82.1479,2.5,22.49,2 
SCCF RECON,ioos:station:SCCF:12:1,2012-11-05T00:00:00Z,26.4966,-82.1479,2.5,22.37,2 
SCCF RECON,ioos:station:SCCF:12:1,2012-11-05T01:00:00Z,26.4966,-82.1479,2.5,22.32,2 
SCCF RECON,ioos:station:SCCF:12:1,2012-11-05T02:00:00Z,26.4966,-82.1479,2.5,22.34,2 
SCCF RECON,ioos:station:SCCF:12:1,2012-11-05T03:00:00Z,26.4966,-82.1479,2.5,22.32,2 
SCCF RECON,ioos:station:SCCF:12:1,2012-11-05T04:00:00Z,26.4966,-82.1479,2.5,22.35,2 
SCCF RECON,ioos:station:SCCF:12:1,2012-11-05T05:00:00Z,26.4966,-82.1479,2.5,22.39,2 
SCCF RECON,ioos:station:SCCF:12:1,2012-11-05T06:00:00Z,26.4966,-82.1479,2.5,22.55,2 
SCCF RECON,ioos:station:SCCF:12:1,2012-11-05T07:00:00Z,26.4966,-82.1479,2.5,22.52,2 
SCCF RECON,ioos:station:SCCF:12:1,2012-11-05T08:00:00Z,26.4966,-82.1479,2.5,22.51,2 
SCCF RECON,ioos:station:SCCF:12:1,2012-11-05T09:00:00Z,26.4966,-82.1479,2.5,22.54,2 
SCCF RECON,ioos:station:SCCF:12:1,2012-11-05T10:00:00Z,26.4966,-82.1479,2.5,22.52,2 
SCCF RECON,ioos:station:SCCF:12:1,2012-11-05T11:00:00Z,26.4966,-82.1479,2.5,22.48,2 
SCCF RECON,ioos:station:SCCF:12:1,2012-11-05T12:00:00Z,26.4966,-82.1479,2.5,22.37,2 
SCCF RECON,ioos:station:SCCF:12:1,2012-11-05T13:00:00Z,26.4966,-82.1479,2.5,22.4,2 
SCCF RECON,ioos:station:SCCF:12:1,2012-11-05T14:00:00Z,26.4966,-82.1479,2.5,22.42,2 
SCCF RECON,ioos:station:SCCF:12:1,2012-11-05T15:00:00Z,26.4966,-82.1479,2.5,22.46,2 
SCCF RECON,ioos:station:SCCF:12:1,2012-11-05T16:00:00Z,26.4966,-82.1479,2.5,22.47,2 
SCCF RECON,ioos:station:SCCF:12:1,2012-11-05T17:00:00Z,26.4966,-82.1479,2.5,22.55,2 
SCCF RECON,ioos:station:SCCF:12:1,2012-11-05T18:00:00Z,26.4966,-82.1479,2.5,22.71,2 
SCCF RECON,ioos:station:SCCF:12:1,2012-11-05T19:00:00Z,26.4966,-82.1479,2.5,23.1,2 
SCCF RECON,ioos:station:SCCF:12:1,2012-11-05T20:00:00Z,26.4966,-82.1479,2.5,22.97,2 
SCCF RECON,ioos:station:SCCF:12:1,2012-11-05T21:00:00Z,26.4966,-82.1479,2.5,23.03,2 
SCCF RECON,ioos:station:SCCF:12:1,2012-11-05T22:00:00Z,26.4966,-82.1479,2.5,23.14,2 
SCCF RECON,ioos:station:SCCF:12:1,2012-11-05T23:00:00Z,26.4966,-82.1479,2.5,23.02,2 
SCCF RECON,ioos:station:SCCF:12:1,2012-11-06T00:00:00Z,26.4966,-82.1479,2.5,23.09,2 
SCCF RECON,ioos:station:SCCF:12:1,2012-11-06T01:00:00Z,26.4966,-82.1479,2.5,22.92,2 
SCCF RECON,ioos:station:SCCF:12:1,2012-11-06T02:00:00Z,26.4966,-82.1479,2.5,22.73,2 
SCCF RECON,ioos:station:SCCF:12:1,2012-11-06T03:00:00Z,26.4966,-82.1479,2.5,22.67,2 
SCCF RECON,ioos:station:SCCF:12:1,2012-11-06T04:00:00Z,26.4966,-82.1479,2.5,22.69,2 
SCCF RECON,ioos:station:SCCF:12:1,2012-11-06T05:00:00Z,26.4966,-82.1479,2.5,22.81,2 
SCCF RECON,ioos:station:SCCF:12:1,2012-11-06T06:00:00Z,26.4966,-82.1479,2.5,22.84,2 
SCCF RECON,ioos:station:SCCF:12:1,2012-11-06T07:00:00Z,26.4966,-82.1479,2.5,22.92,2 
SCCF RECON,ioos:station:SCCF:12:1,2012-11-06T08:00:00Z,26.4966,-82.1479,2.5,23.01,2 
SCCF RECON,ioos:station:SCCF:12:1,2012-11-06T09:00:00Z,26.4966,-82.1479,2.5,23.06,2 
SCCF RECON,ioos:station:SCCF:12:1,2012-11-06T10:00:00Z,26.4966,-82.1479,2.5,23.03,2 
SCCF RECON,ioos:station:SCCF:12:1,2012-11-06T11:00:00Z,26.4966,-82.1479,2.5,22.99,2 
SCCF RECON,ioos:station:SCCF:12:1,2012-11-06T12:00:00Z,26.4966,-82.1479,2.5,22.88,2 
SCCF RECON,ioos:station:SCCF:12:1,2012-11-06T13:00:00Z,26.4966,-82.1479,2.5,22.75,2 
SCCF RECON,ioos:station:SCCF:12:1,2012-11-06T14:00:00Z,26.4966,-82.1479,2.5,22.76,2 
SCCF RECON,ioos:station:SCCF:12:1,2012-11-06T15:00:00Z,26.4966,-82.1479,2.5,22.74,2 
SCCF RECON,ioos:station:SCCF:12:1,2012-11-06T16:00:00Z,26.4966,-82.1479,2.5,22.78,2 
SCCF RECON,ioos:station:SCCF:12:1,2012-11-06T17:00:00Z,26.4966,-82.1479,2.5,22.91,2 
SCCF RECON,ioos:station:SCCF:12:1,2012-11-06T18:00:00Z,26.4966,-82.1479,2.5,22.87,2 
SCCF RECON,ioos:station:SCCF:12:1,2012-11-06T19:00:00Z,26.4966,-82.1479,2.5,22.84,2 
SCCF RECON,ioos:station:SCCF:12:1,2012-11-06T20:00:00Z,26.4966,-82.1479,2.5,22.95,2 
SCCF RECON,ioos:station:SCCF:12:1,2012-11-06T21:00:00Z,26.4966,-82.1479,2.5,23.0,2 
SCCF RECON,ioos:station:SCCF:12:1,2012-11-06T22:00:00Z,26.4966,-82.1479,2.5,23.02,2 
SCCF RECON,ioos:station:SCCF:12:1,2012-11-06T23:00:00Z,26.4966,-82.1479,2.5,22.98,2 
SCCF RECON,ioos:station:SCCF:12:1,2012-11-07T00:00:00Z,26.4966,-82.1479,2.5,22.94,2 
SCCF RECON,ioos:station:SCCF:12:1,2012-11-07T01:00:00Z,26.4966,-82.1479,2.5,22.92,2 
SCCF RECON,ioos:station:SCCF:12:1,2012-11-07T02:00:00Z,26.4966,-82.1479,2.5,22.9,2 
SCCF RECON,ioos:station:SCCF:12:1,2012-11-07T03:00:00Z,26.4966,-82.1479,2.5,22.88,2 
SCCF RECON,ioos:station:SCCF:12:1,2012-11-07T04:00:00Z,26.4966,-82.1479,2.5,22.9,2 
SCCF RECON,ioos:station:SCCF:12:1,2012-11-07T05:00:00Z,26.4966,-82.1479,2.5,22.8,2 
SCCF RECON,ioos:station:SCCF:12:1,2012-11-07T06:00:00Z,26.4966,-82.1479,2.5,22.75,2 
SCCF RECON,ioos:station:SCCF:12:1,2012-11-07T07:00:00Z,26.4966,-82.1479,2.5,22.59,2 
SCCF RECON,ioos:station:SCCF:12:1,2012-11-07T08:00:00Z,26.4966,-82.1479,2.5,22.56,2 
SCCF RECON,ioos:station:SCCF:12:1,2012-11-07T09:00:00Z,26.4966,-82.1479,2.5,22.62,2 
SCCF RECON,ioos:station:SCCF:12:1,2012-11-07T10:00:00Z,26.4966,-82.1479,2.5,22.64,2 
SCCF RECON,ioos:station:SCCF:12:1,2012-11-07T11:00:00Z,26.4966,-82.1479,2.5,22.48,2 
SCCF RECON,ioos:station:SCCF:12:1,2012-11-07T12:00:00Z,26.4966,-82.1479,2.5,22.38,2 
SCCF RECON,ioos:station:SCCF:12:1,2012-11-07T13:00:00Z,26.4966,-82.1479,2.5,22.31,2 
SCCF RECON,ioos:station:SCCF:12:1,2012-11-07T14:00:00Z,26.4966,-82.1479,2.5,22.27,2 
SCCF RECON,ioos:station:SCCF:12:1,2012-11-07T15:00:00Z,26.4966,-82.1479,2.5,22.39,2 
SCCF RECON,ioos:station:SCCF:12:1,2012-11-07T16:00:00Z,26.4966,-82.1479,2.5,22.39,2 
SCCF RECON,ioos:station:SCCF:12:1,2012-11-07T17:00:00Z,26.4966,-82.1479,2.5,22.44,2 
SCCF RECON,ioos:station:SCCF:12:1,2012-11-07T18:00:00Z,26.4966,-82.1479,2.5,22.36,2 
SCCF RECON,ioos:station:SCCF:12:1,2012-11-07T19:00:00Z,26.4966,-82.1479,2.5,22.38,2 
SCCF RECON,ioos:station:SCCF:12:1,2012-11-07T20:00:00Z,26.4966,-82.1479,2.5,22.49,2 
SCCF RECON,ioos:station:SCCF:12:1,2012-11-07T21:00:00Z,26.4966,-82.1479,2.5,22.49,2 
SCCF RECON,ioos:station:SCCF:12:1,2012-11-07T22:00:00Z,26.4966,-82.1479,2.5,22.42,2 
SCCF RECON,ioos:station:SCCF:12:1,2012-11-07T23:00:00Z,26.4966,-82.1479,2.5,22.27,2 
SCCF RECON,ioos:station:SCCF:12:1,2012-11-08T00:00:00Z,26.4966,-82.1479,2.5,22.16,2 
SCCF RECON,ioos:station:SCCF:12:1,2012-11-08T01:00:00Z,26.4966,-82.1479,2.5,22.1,2 
SCCF RECON,ioos:station:SCCF:12:1,2012-11-08T02:00:00Z,26.4966,-82.1479,2.5,22.01,2 
SCCF RECON,ioos:station:SCCF:12:1,2012-11-08T03:00:00Z,26.4966,-82.1479,2.5,21.92,2 
SCCF RECON,ioos:station:SCCF:12:1,2012-11-08T04:00:00Z,26.4966,-82.1479,2.5,21.85,2 
SCCF RECON,ioos:station:SCCF:12:1,2012-11-08T05:00:00Z,26.4966,-82.1479,2.5,21.8,2 
SCCF RECON,ioos:station:SCCF:12:1,2012-11-08T06:00:00Z,26.4966,-82.1479,2.5,21.72,2 
SCCF RECON,ioos:station:SCCF:12:1,2012-11-08T07:00:00Z,26.4966,-82.1479,2.5,21.6,2 
SCCF RECON,ioos:station:SCCF:12:1,2012-11-08T08:00:00Z,26.4966,-82.1479,2.5,21.43,2 
SCCF RECON,ioos:station:SCCF:12:1,2012-11-08T09:00:00Z,26.4966,-82.1479,2.5,21.28,2 
SCCF RECON,ioos:station:SCCF:12:1,2012-11-08T10:00:00Z,26.4966,-82.1479,2.5,21.03,2 
SCCF RECON,ioos:station:SCCF:12:1,2012-11-08T11:00:00Z,26.4966,-82.1479,2.5,20.91,2 
SCCF RECON,ioos:station:SCCF:12:1,2012-11-08T12:00:00Z,26.4966,-82.1479,2.5,21.0,2 
SCCF RECON,ioos:station:SCCF:12:1,2012-11-08T13:00:00Z,26.4966,-82.1479,2.5,20.88,2 
SCCF RECON,ioos:station:SCCF:12:1,2012-11-08T14:00:00Z,26.4966,-82.1479,2.5,20.72,2 
SCCF RECON,ioos:station:SCCF:12:1,2012-11-08T15:00:00Z,26.4966,-82.1479,2.5,20.76,2 
SCCF RECON,ioos:station:SCCF:12:1,2012-11-08T16:00:00Z,26.4966,-82.1479,2.5,20.82,2 
SCCF RECON,ioos:station:SCCF:12:1,2012-11-08T17:00:00Z,26.4966,-82.1479,2.5,20.81,2 
SCCF RECON,ioos:station:SCCF:12:1,2012-11-08T18:00:00Z,26.4966,-82.1479,2.5,20.77,2 
SCCF RECON,ioos:station:SCCF:12:1,2012-11-08T19:00:00Z,26.4966,-82.1479,2.5,20.59,2 
SCCF RECON,ioos:station:SCCF:12:1,2012-11-08T20:00:00Z,26.4966,-82.1479,2.5,20.53,2 
SCCF RECON,ioos:station:SCCF:12:1,2012-11-08T21:00:00Z,26.4966,-82.1479,2.5,20.57,2 
SCCF RECON,ioos:station:SCCF:12:1,2012-11-08T22:00:00Z,26.4966,-82.1479,2.5,20.68,2 
SCCF RECON,ioos:station:SCCF:12:1,2012-11-08T23:00:00Z,26.4966,-82.1479,2.5,20.39,2 
SCCF RECON,ioos:station:SCCF:12:1,2012-11-09T00:00:00Z,26.4966,-82.1479,2.5,20.5,2 
SCCF RECON,ioos:station:SCCF:12:1,2012-11-09T01:00:00Z,26.4966,-82.1479,2.5,20.52,2 
SCCF RECON,ioos:station:SCCF:12:1,2012-11-09T02:00:00Z,26.4966,-82.1479,2.5,20.43,2 
SCCF RECON,ioos:station:SCCF:12:1,2012-11-09T03:00:00Z,26.4966,-82.1479,2.5,20.2,2 
SCCF RECON,ioos:station:SCCF:12:1,2012-11-09T04:00:00Z,26.4966,-82.1479,2.5,20.02,2 
SCCF RECON,ioos:station:SCCF:12:1,2012-11-09T05:00:00Z,26.4966,-82.1479,2.5,19.96,2 
SCCF RECON,ioos:station:SCCF:12:1,2012-11-09T06:00:00Z,26.4966,-82.1479,2.5,19.82,2 
SCCF RECON,ioos:station:SCCF:12:1,2012-11-09T07:00:00Z,26.4966,-82.1479,2.5,19.83,2 
SCCF RECON,ioos:station:SCCF:12:1,2012-11-09T08:00:00Z,26.4966,-82.1479,2.5,19.77,2 
SCCF RECON,ioos:station:SCCF:12:1,2012-11-09T09:00:00Z,26.4966,-82.1479,2.5,19.72,2 
SCCF RECON,ioos:station:SCCF:12:1,2012-11-09T10:00:00Z,26.4966,-82.1479,2.5,19.62,2 
SCCF RECON,ioos:station:SCCF:12:1,2012-11-09T11:00:00Z,26.4966,-82.1479,2.5,19.58,2 
SCCF RECON,ioos:station:SCCF:12:1,2012-11-09T12:00:00Z,26.4966,-82.1479,2.5,19.27,2 
SCCF RECON,ioos:station:SCCF:12:1,2012-11-09T13:00:00Z,26.4966,-82.1479,2.5,19.16,2 
SCCF RECON,ioos:station:SCCF:12:1,2012-11-09T14:00:00Z,26.4966,-82.1479,2.5,19.17,2 
SCCF RECON,ioos:station:SCCF:12:1,2012-11-09T15:00:00Z,26.4966,-82.1479,2.5,19.32,2 
SCCF RECON,ioos:station:SCCF:12:1,2012-11-09T16:00:00Z,26.4966,-82.1479,2.5,19.4,2 
SCCF RECON,ioos:station:SCCF:12:1,2012-11-09T17:00:00Z,26.4966,-82.1479,2.5,19.18,2 
SCCF RECON,ioos:station:SCCF:12:1,2012-11-09T18:00:00Z,26.4966,-82.1479,2.5,18.76,2 
SCCF RECON,ioos:station:SCCF:12:1,2012-11-09T19:00:00Z,26.4966,-82.1479,2.5,18.92,2 
SCCF RECON,ioos:station:SCCF:12:1,2012-11-09T20:00:00Z,26.4966,-82.1479,2.5,19.44,2 
SCCF RECON,ioos:station:SCCF:12:1,2012-11-09T21:00:00Z,26.4966,-82.1479,2.5,19.67,2 
SCCF RECON,ioos:station:SCCF:12:1,2012-11-09T22:00:00Z,26.4966,-82.1479,2.5,19.74,2 
SCCF RECON,ioos:station:SCCF:12:1,2012-11-09T23:00:00Z,26.4966,-82.1479,2.5,19.53,2 
SCCF RECON,ioos:station:SCCF:12:1,2012-11-10T00:00:00Z,26.4966,-82.1479,2.5,19.47,2 
SCCF RECON,ioos:station:SCCF:12:1,2012-11-10T01:00:00Z,26.4966,-82.1479,2.5,19.43,2 
SCCF RECON,ioos:station:SCCF:12:1,2012-11-10T02:00:00Z,26.4966,-82.1479,2.5,19.43,2 
SCCF RECON,ioos:station:SCCF:12:1,2012-11-10T03:00:00Z,26.4966,-82.1479,2.5,19.38,2 
SCCF RECON,ioos:station:SCCF:12:1,2012-11-10T04:00:00Z,26.4966,-82.1479,2.5,19.38,2 
SCCF RECON,ioos:station:SCCF:12:1,2012-11-10T05:00:00Z,26.4966,-82.1479,2.5,19.37,2 
SCCF RECON,ioos:station:SCCF:12:1,2012-11-10T06:00:00Z,26.4966,-82.1479,2.5,19.27,2 
SCCF RECON,ioos:station:SCCF:12:1,2012-11-10T07:00:00Z,26.4966,-82.1479,2.5,19.21,2 
SCCF RECON,ioos:station:SCCF:12:1,2012-11-10T08:00:00Z,26.4966,-82.1479,2.5,19.17,2 
SCCF RECON,ioos:station:SCCF:12:1,2012-11-10T09:00:00Z,26.4966,-82.1479,2.5,19.07,2 
SCCF RECON,ioos:station:SCCF:12:1,2012-11-10T10:00:00Z,26.4966,-82.1479,2.5,19.03,2 
SCCF RECON,ioos:station:SCCF:12:1,2012-11-10T11:00:00Z,26.4966,-82.1479,2.5,18.97,2 
SCCF RECON,ioos:station:SCCF:12:1,2012-11-10T12:00:00Z,26.4966,-82.1479,2.5,18.85,2 
SCCF RECON,ioos:station:SCCF:12:1,2012-11-10T13:00:00Z,26.4966,-82.1479,2.5,18.83,2 
SCCF RECON,ioos:station:SCCF:12:1,2012-11-10T14:00:00Z,26.4966,-82.1479,2.5,18.83,2 
SCCF RECON,ioos:station:SCCF:12:1,2012-11-10T15:00:00Z,26.4966,-82.1479,2.5,18.97,2 
SCCF RECON,ioos:station:SCCF:12:1,2012-11-10T16:00:00Z,26.4966,-82.1479,2.5,18.95,2 
SCCF RECON,ioos:station:SCCF:12:1,2012-11-10T17:00:00Z,26.4966,-82.1479,2.5,19.04,2 
SCCF RECON,ioos:station:SCCF:12:1,2012-11-10T18:00:00Z,26.4966,-82.1479,2.5,19.1,2 
SCCF RECON,ioos:station:SCCF:12:1,2012-11-10T19:00:00Z,26.4966,-82.1479,2.5,19.27,2 
SCCF RECON,ioos:station:SCCF:12:1,2012-11-10T20:00:00Z,26.4966,-82.1479,2.5,19.28,2 
SCCF RECON,ioos:station:SCCF:12:1,2012-11-10T21:00:00Z,26.4966,-82.1479,2.5,19.44,2 
SCCF RECON,ioos:station:SCCF:12:1,2012-11-10T22:00:00Z,26.4966,-82.1479,2.5,19.49,2 
SCCF RECON,ioos:station:SCCF:12:1,2012-11-10T23:00:00Z,26.4966,-82.1479,2.5,19.55,2 
SCCF RECON,ioos:station:SCCF:12:1,2012-11-11T00:00:00Z,26.4966,-82.1479,2.5,19.52,2 
SCCF RECON,ioos:station:SCCF:12:1,2012-11-11T01:00:00Z,26.4966,-82.1479,2.5,19.48,2 
SCCF RECON,ioos:station:SCCF:12:1,2012-11-11T02:00:00Z,26.4966,-82.1479,2.5,19.43,2 
SCCF RECON,ioos:station:SCCF:12:1,2012-11-11T03:00:00Z,26.4966,-82.1479,2.5,19.44,2 
SCCF RECON,ioos:station:SCCF:12:1,2012-11-11T04:00:00Z,26.4966,-82.1479,2.5,19.39,2 
SCCF RECON,ioos:station:SCCF:12:1,2012-11-11T05:00:00Z,26.4966,-82.1479,2.5,19.4,2 
SCCF RECON,ioos:station:SCCF:12:1,2012-11-11T06:00:00Z,26.4966,-82.1479,2.5,19.4,2 
SCCF RECON,ioos:station:SCCF:12:1,2012-11-11T07:00:00Z,26.4966,-82.1479,2.5,19.46,2 
SCCF RECON,ioos:station:SCCF:12:1,2012-11-11T08:00:00Z,26.4966,-82.1479,2.5,19.28,2 
SCCF RECON,ioos:station:SCCF:12:1,2012-11-11T09:00:00Z,26.4966,-82.1479,2.5,19.22,2 
SCCF RECON,ioos:station:SCCF:12:1,2012-11-11T10:00:00Z,26.4966,-82.1479,2.5,19.17,2 
SCCF RECON,ioos:station:SCCF:12:1,2012-11-11T11:00:00Z,26.4966,-82.1479,2.5,19.16,2 
SCCF RECON,ioos:station:SCCF:12:1,2012-11-11T12:00:00Z,26.4966,-82.1479,2.5,19.21,2 
SCCF RECON,ioos:station:SCCF:12:1,2012-11-11T13:00:00Z,26.4966,-82.1479,2.5,19.17,2 
SCCF RECON,ioos:station:SCCF:12:1,2012-11-11T14:00:00Z,26.4966,-82.1479,2.5,19.24,2 
SCCF RECON,ioos:station:SCCF:12:1,2012-11-11T15:00:00Z,26.4966,-82.1479,2.5,19.32,2 
SCCF RECON,ioos:station:SCCF:12:1,2012-11-11T16:00:00Z,26.4966,-82.1479,2.5,19.39,2 
SCCF RECON,ioos:station:SCCF:12:1,2012-11-11T17:00:00Z,26.4966,-82.1479,2.5,19.44,2 
SCCF RECON,ioos:station:SCCF:12:1,2012-11-11T18:00:00Z,26.4966,-82.1479,2.5,19.7,2 
SCCF RECON,ioos:station:SCCF:12:1,2012-11-11T19:00:00Z,26.4966,-82.1479,2.5,19.9,2 
SCCF RECON,ioos:station:SCCF:12:1,2012-11-11T20:00:00Z,26.4966,-82.1479,2.5,20.02,2 
SCCF RECON,ioos:station:SCCF:12:1,2012-11-11T21:00:00Z,26.4966,-82.1479,2.5,20.34,2 
SCCF RECON,ioos:station:SCCF:12:1,2012-11-11T22:00:00Z,26.4966,-82.1479,2.5,20.49,2 
SCCF RECON,ioos:station:SCCF:12:1,2012-11-11T23:00:00Z,26.4966,-82.1479,2.5,20.23,2 
SCCF RECON,ioos:station:SCCF:12:1,2012-11-12T00:00:00Z,26.4966,-82.1479,2.5,20.19,2 
SCCF RECON,ioos:station:SCCF:12:1,2012-11-12T01:00:00Z,26.4966,-82.1479,2.5,20.15,2 
SCCF RECON,ioos:station:SCCF:12:1,2012-11-12T02:00:00Z,26.4966,-82.1479,2.5,20.05,2 
SCCF RECON,ioos:station:SCCF:12:1,2012-11-12T03:00:00Z,26.4966,-82.1479,2.5,20.02,2 
SCCF RECON,ioos:station:SCCF:12:1,2012-11-12T04:00:00Z,26.4966,-82.1479,2.5,20.0,2 
SCCF RECON,ioos:station:SCCF:12:1,2012-11-12T05:00:00Z,26.4966,-82.1479,2.5,20.1,2 
SCCF RECON,ioos:station:SCCF:12:1,2012-11-12T06:00:00Z,26.4966,-82.1479,2.5,20.13,2 
SCCF RECON,ioos:station:SCCF:12:1,2012-11-12T07:00:00Z,26.4966,-82.1479,2.5,20.19,2 
SCCF RECON,ioos:station:SCCF:12:1,2012-11-12T08:00:00Z,26.4966,-82.1479,2.5,20.18,2 
SCCF RECON,ioos:station:SCCF:12:1,2012-11-12T09:00:00Z,26.4966,-82.1479,2.5,20.13,2 
SCCF RECON,ioos:station:SCCF:12:1,2012-11-12T10:00:00Z,26.4966,-82.1479,2.5,20.07,2 
SCCF RECON,ioos:station:SCCF:12:1,2012-11-12T11:00:00Z,26.4966,-82.1479,2.5,20.23,2 
SCCF RECON,ioos:station:SCCF:12:1,2012-11-12T12:00:00Z,26.4966,-82.1479,2.5,20.07,2 
SCCF RECON,ioos:station:SCCF:12:1,2012-11-12T13:00:00Z,26.4966,-82.1479,2.5,20.04,2 
SCCF RECON,ioos:station:SCCF:12:1,2012-11-12T14:00:00Z,26.4966,-82.1479,2.5,20.01,2 
SCCF RECON,ioos:station:SCCF:12:1,2012-11-12T15:00:00Z,26.4966,-82.1479,2.5,20.21,2 
SCCF RECON,ioos:station:SCCF:12:1,2012-11-12T16:00:00Z,26.4966,-82.1479,2.5,20.35,2 